TimeMST,TemperatureF,Dew PointF,Humidity,Sea Level PressureIn,VisibilityMPH,Wind Direction,Wind SpeedMPH,Gust SpeedMPH,PrecipitationIn,Events,Conditions,WindDirDegrees,DateUTC
12:15 AM,-2.2,-5.8,85,30.10,10.0,NNW,8.1,-,N/A,,Clear,340,2012-12-10 07:15:00
12:35 AM,-0.4,-4.0,85,30.10,10.0,NNW,6.9,-,N/A,,Clear,340,2012-12-10 07:35:00
12:55 AM,-2.2,-11.2,66,30.10,10.0,NNW,4.6,-,N/A,,Clear,330,2012-12-10 07:55:00
1:15 AM,-2.2,-5.8,85,30.09,10.0,NW,5.8,-,N/A,,Clear,320,2012-12-10 08:15:00
1:55 AM,-2.2,-7.6,78,30.08,10.0,Calm,Calm,-,N/A,,Clear,0,2012-12-10 08:55:00
2:15 AM,-5.8,-16.6,60,30.09,10.0,Calm,Calm,-,N/A,,Clear,0,2012-12-10 09:15:00
2:35 AM,-7.6,-11.2,84,30.08,10.0,Calm,Calm,-,N/A,,Clear,0,2012-12-10 09:35:00
2:55 AM,-7.6,-9.4,92,30.08,10.0,Calm,Calm,-,N/A,,Clear,0,2012-12-10 09:55:00
3:15 AM,-5.8,-11.2,77,30.07,10.0,Calm,Calm,-,N/A,,Clear,0,2012-12-10 10:15:00
3:35 AM,-5.8,-11.2,77,30.07,10.0,Calm,Calm,-,N/A,,Clear,0,2012-12-10 10:35:00
3:55 AM,-5.8,-11.2,77,30.07,10.0,Calm,Calm,-,N/A,,Clear,0,2012-12-10 10:55:00
4:15 AM,-5.8,-11.2,77,30.07,10.0,Calm,Calm,-,N/A,,Clear,0,2012-12-10 11:15:00
4:35 AM,-7.6,-16.6,65,30.07,10.0,Calm,Calm,-,N/A,,Clear,0,2012-12-10 11:35:00
4:55 AM,-7.6,-13.0,77,30.06,10.0,Calm,Calm,-,N/A,,Clear,0,2012-12-10 11:55:00
5:15 AM,-7.6,-11.2,84,30.06,10.0,Calm,Calm,-,N/A,,Clear,0,2012-12-10 12:15:00
5:35 AM,-11.2,-18.4,70,30.07,10.0,Calm,Calm,-,N/A,,Clear,0,2012-12-10 12:35:00
5:55 AM,-7.6,-11.2,84,30.08,10.0,WNW,3.5,-,N/A,,Clear,300,2012-12-10 12:55:00
6:15 AM,-7.6,-18.4,59,30.09,10.0,North,3.5,-,N/A,,Clear,360,2012-12-10 13:15:00
6:35 AM,-5.8,-9.4,84,30.09,10.0,Calm,Calm,-,N/A,,Clear,0,2012-12-10 13:35:00
6:55 AM,-9.4,-18.4,65,30.09,10.0,Calm,Calm,-,N/A,,Clear,0,2012-12-10 13:55:00
7:15 AM,-9.4,-11.2,92,30.09,10.0,East,3.5,-,N/A,,Clear,80,2012-12-10 14:15:00
7:35 AM,-7.6,-14.8,71,30.10,10.0,Calm,Calm,-,N/A,,Clear,0,2012-12-10 14:35:00
7:55 AM,-4.0,-7.6,85,30.09,10.0,East,3.5,-,N/A,,Clear,90,2012-12-10 14:55:00
8:15 AM,-0.4,-5.8,78,30.09,10.0,Calm,Calm,-,N/A,,Clear,0,2012-12-10 15:15:00
8:35 AM,3.2,1.4,92,30.11,10.0,North,3.5,-,N/A,,Clear,360,2012-12-10 15:35:00
8:55 AM,5.0,1.4,85,30.11,10.0,Calm,Calm,-,N/A,,Clear,0,2012-12-10 15:55:00
9:15 AM,6.8,-0.4,72,30.11,10.0,Calm,Calm,-,N/A,,Clear,0,2012-12-10 16:15:00
9:35 AM,8.6,1.4,73,30.11,10.0,Calm,Calm,-,N/A,,Clear,0,2012-12-10 16:35:00
9:55 AM,10.4,3.2,73,30.11,10.0,Calm,Calm,-,N/A,,Clear,0,2012-12-10 16:55:00
10:15 AM,14.0,1.4,57,30.11,10.0,Calm,Calm,-,N/A,,Clear,0,2012-12-10 17:15:00
10:35 AM,15.8,1.4,53,30.10,10.0,Calm,Calm,-,N/A,,Clear,0,2012-12-10 17:35:00
10:55 AM,15.8,3.2,58,30.09,10.0,SSW,4.6,-,N/A,,Clear,200,2012-12-10 17:55:00
11:15 AM,17.6,1.4,49,30.07,10.0,SSW,5.8,-,N/A,,Clear,210,2012-12-10 18:15:00
11:35 AM,17.6,1.4,49,30.06,10.0,SSE,4.6,-,N/A,,Clear,150,2012-12-10 18:35:00
11:55 AM,21.2,6.8,54,30.04,10.0,ESE,3.5,-,N/A,,Clear,120,2012-12-10 18:55:00
12:15 PM,21.2,5.0,50,30.03,10.0,NE,3.5,-,N/A,,Clear,40,2012-12-10 19:15:00
12:35 PM,21.2,5.0,50,30.02,10.0,East,4.6,-,N/A,,Clear,90,2012-12-10 19:35:00
12:55 PM,24.8,6.8,46,30.01,10.0,East,4.6,-,N/A,,Clear,90,2012-12-10 19:55:00
1:15 PM,24.8,5.0,43,30.00,10.0,SSE,5.8,-,N/A,,Clear,150,2012-12-10 20:15:00
1:35 PM,24.8,6.8,46,29.99,10.0,SE,8.1,-,N/A,,Clear,140,2012-12-10 20:35:00
1:55 PM,24.8,3.2,40,29.97,10.0,SE,5.8,-,N/A,,Clear,140,2012-12-10 20:55:00
2:15 PM,24.8,5.0,43,29.95,10.0,SSE,8.1,-,N/A,,Clear,150,2012-12-10 21:15:00
2:35 PM,26.6,6.8,43,29.96,10.0,South,5.8,-,N/A,,Clear,180,2012-12-10 21:35:00
2:55 PM,26.6,6.8,43,29.95,10.0,SE,5.8,-,N/A,,Clear,140,2012-12-10 21:55:00
3:15 PM,26.6,6.8,43,29.95,10.0,SE,8.1,-,N/A,,Clear,130,2012-12-10 22:15:00
3:35 PM,26.6,5.0,40,29.95,10.0,SE,5.8,-,N/A,,Clear,130,2012-12-10 22:35:00
3:55 PM,26.6,5.0,40,29.95,10.0,ESE,9.2,-,N/A,,Clear,110,2012-12-10 22:55:00
4:15 PM,26.6,5.0,40,29.94,10.0,East,10.4,-,N/A,,Clear,100,2012-12-10 23:15:00
4:35 PM,24.8,5.0,43,29.94,10.0,ESE,9.2,-,N/A,,Clear,120,2012-12-10 23:35:00
4:55 PM,21.2,3.2,46,29.95,10.0,SE,8.1,-,N/A,,Clear,130,2012-12-10 23:55:00
5:15 PM,21.2,5.0,50,29.94,10.0,SE,11.5,-,N/A,,Mostly Cloudy,140,2012-12-11 00:15:00
5:35 PM,21.2,5.0,50,29.95,10.0,SSE,10.4,-,N/A,,Overcast,150,2012-12-11 00:35:00
5:55 PM,21.2,6.8,54,29.94,10.0,SE,8.1,-,N/A,,Mostly Cloudy,140,2012-12-11 00:55:00
6:15 PM,19.4,6.8,58,29.96,10.0,SSE,5.8,-,N/A,,Scattered Clouds,150,2012-12-11 01:15:00
6:35 PM,19.4,6.8,58,29.97,10.0,WNW,3.5,-,N/A,,Overcast,300,2012-12-11 01:35:00
6:55 PM,19.4,3.2,49,29.97,10.0,NNW,5.8,-,N/A,,Overcast,340,2012-12-11 01:55:00
7:15 PM,19.4,5.0,54,29.98,10.0,North,6.9,-,N/A,,Overcast,350,2012-12-11 02:15:00
7:35 PM,19.4,3.2,49,29.98,10.0,North,6.9,-,N/A,,Overcast,350,2012-12-11 02:35:00
7:55 PM,17.6,3.2,53,29.98,10.0,North,5.8,-,N/A,,Overcast,350,2012-12-11 02:55:00
8:15 PM,14.0,1.4,57,29.98,10.0,North,6.9,-,N/A,,Scattered Clouds,350,2012-12-11 03:15:00
8:35 PM,12.2,3.2,67,29.97,10.0,Calm,Calm,-,N/A,,Scattered Clouds,0,2012-12-11 03:35:00
8:55 PM,10.4,1.4,67,29.98,10.0,West,4.6,-,N/A,,Partly Cloudy,280,2012-12-11 03:55:00
9:15 PM,14.0,6.8,73,29.98,10.0,Calm,Calm,-,N/A,,Scattered Clouds,0,2012-12-11 04:15:00
9:35 PM,12.2,-0.4,57,29.99,10.0,Calm,Calm,-,N/A,,Partly Cloudy,0,2012-12-11 04:35:00
9:55 PM,8.6,3.2,79,29.99,10.0,ENE,3.5,-,N/A,,Scattered Clouds,70,2012-12-11 04:55:00
10:15 PM,10.4,1.4,67,29.98,10.0,NNE,3.5,-,N/A,,Scattered Clouds,30,2012-12-11 05:15:00
10:35 PM,10.4,3.2,73,29.99,10.0,Calm,Calm,-,N/A,,Overcast,0,2012-12-11 05:35:00
10:55 PM,12.2,3.2,67,29.99,10.0,ENE,3.5,-,N/A,,Mostly Cloudy,60,2012-12-11 05:55:00
11:15 PM,8.6,-0.4,67,29.99,10.0,NNW,3.5,-,N/A,,Clear,330,2012-12-11 06:15:00
11:35 PM,8.6,1.4,73,29.99,10.0,NNW,3.5,-,N/A,,Clear,340,2012-12-11 06:35:00
11:55 PM,8.6,-2.2,62,30.00,10.0,North,3.5,-,N/A,,Clear,350,2012-12-11 06:55:00